Location: Demre
(36.2444°N, 29.9850°E)
Time: 04:50:02
(UTC+00:00)

Cosmos 2266 Rocket - Pass Details

Date: 11 March 2026
Orbit: 933 x 1007 km, 82.9° (Epoch: 21 April)

Event Time Altitude Azimuth Distance (km) Brightness Sun altitude
Rises 17:37:28 0° 178° (S) 3,634 6.9 -19.6°
Reaches altitude 10° 17:39:56 10° 176° (S) 2,702 6.2 -20.1°
Maximum altitude 17:46:06 71° 93° (E) 1,038 3.9 -21.3°
Drops below altitude 10° 17:52:25 10° 11° (N) 2,766 6.4 -22.6°
Sets 17:54:58 0° 10° (N) 3,726 7.1 -23.1°
